Terug naar catalogus

STARLINK-1434

ActiefCommunicatieVLEO
NORAD 45712·PAYLOAD·🇺🇸 United States

Gelanceerd Jun 4, 2020 vanaf Cape Canaveral Space Force Station

Loading…

Volgende Passages (komende 24 uur)

TLE

VersSource: CelesTrak SupGP

Epoch: Sep 14, 2026, 19:59 UTC

1 45712C 20035BH  26257.83312500  .00062836  00000+0  14288-2 0  2579
2 45712  53.0457 213.1155 0004513  53.3486  74.2175 15.42369563    16

Volg STARLINK-1434 in realtime met AllMySat

Download on the App Store